Location: El Diablo
(32.4667°N, 116.4500°W)
Time: 01:10:05
(UTC+00:00)

Cosmos 1238 Rocket - Pass Details

Date: 10 September 2024
Orbit: 362 x 849 km, 82.9° (Epoch: 06 October)

Event Time Altitude Azimuth Distance (km) Brightness Sun altitude
Rises 12:50:23 0° 180° (S) 3,176 6.6 -8.4°
Reaches altitude 10° 12:52:37 10° 179° (S) 2,315 5.9 -8.0°
Maximum altitude 12:57:55 78° 94° (E) 850 3.9 -6.9°
Drops below altitude 10° 13:03:40 10° 9° (N) 2,500 6.4 -5.7°
Sets 13:06:09 0° 8° (N) 3,447 7.1 -5.2°
